Weather reports worldwide

Advertisment
Lahr, Germany (10805): temperature & dewpoint: 01.08.2020 03:00:00 - 07.08.2020 03:00:00 (CEST)Lahr, Germany (10805): temperature 5cm & temperature -5cm: 01.08.2020 03:00:00 - 07.08.2020 03:00:00 (CEST)Lahr, Germany (10805): temperature -20cm & temperature -100cm: 01.08.2020 03:00:00 - 07.08.2020 03:00:00 (CEST)Lahr, Germany (10805): wind speed & gusts: 01.08.2020 03:00:00 - 07.08.2020 03:00:00 (CEST)Lahr, Germany (10805): wind direction: 01.08.2020 03:00:00 - 07.08.2020 03:00:00 (CEST)Lahr, Germany (10805): reduced air pressure: 01.08.2020 03:00:00 - 07.08.2020 03:00:00 (CEST)Lahr, Germany (10805): visibility: 01.08.2020 03:00:00 - 07.08.2020 03:00:00 (CEST)Lahr, Germany (10805): sunshine duration: 01.08.2020 03:00:00 - 07.08.2020 03:00:00 (CEST)Lahr, Germany (10805): precipitation: 01.08.2020 03:00:00 - 07.08.2020 03:00:00 (CEST)
Date & Time tt [°C] td [°C] tt 5cm [°C] tt -5cm [°C] tt -20cm [°C] tt -100cm [°C] ff [km/h] ff [kn] fx [km/h] fx [kn] dd ppp [hPa] vv [km] sd [min] rr [mm]
07.08.2020 03:00:00 18,5 15,1 15,5 19,3 22,5 20,6 3 1 8 4 NNE 1019,1 56 0 0,0
07.08.2020 02:00:00 20,5 15,2 17,2 19,9 22,8 20,6 3 2 13 7 N 1019,0 69 0 0,0
07.08.2020 01:00:00 22,9 15,1 18,8 20,5 23,2 20,6 3 2 11 6 SSW 1018,8 62 0 0,0
07.08.2020 00:00:00 21,0 15,5 17,7 21,2 23,5 20,6 5 3 12 7 W 1018,8 53 0 0,0
06.08.2020 23:00:00 21,6 15,9 18,0 22,0 23,8 20,6 3 2 7 4 N 1018,5 65 0 0,0
06.08.2020 22:00:00 21,7 16,5 18,8 23,0 24,1 20,6 5 3 11 6 E 1018,2 70 0 0,0
06.08.2020 21:00:00 25,3 15,3 22,2 24,4 24,3 20,6 10 5 14 8 N 1017,5 74 32 0,0
06.08.2020 20:00:00 28,6 14,9 28,1 26,4 24,2 20,7 11 6 20 11 NNW 1017,0 74 60 0,0
06.08.2020 19:00:00 29,2 13,7 30,1 27,2 24,1 20,7 16 9 21 11 NW 1016,7 10 60 0,0
06.08.2020 18:00:00 29,6 13,9 31,2 27,8 23,7 20,7 12 6 19 11 NW 1016,9 52 60 0,0
06.08.2020 17:00:00 29,0 14,0 31,2 27,9 23,3 20,7 15 8 22 12 NW 1017,1 10 60 0,0
06.08.2020 16:00:00 28,2 13,5 31,0 28,1 22,7 20,7 13 7 27 15 NNW 1017,5 71 60 0,0
06.08.2020 15:00:00 27,9 14,3 30,8 28,0 22,1 20,7 15 8 22 12 NW 1017,8 10 60 0,0
06.08.2020 14:00:00 26,0 13,4 29,9 27,6 21,4 20,7 13 7 27 15 - 1018,4 10 60 0,0
06.08.2020 13:00:00 25,3 13,7 28,0 26,8 20,7 20,7 11 6 22 12 NNW 1018,9 75 60 0,0
06.08.2020 12:00:00 24,1 13,5 26,4 25,9 20,0 20,7 7 4 16 9 NW 1019,2 49 60 0,0
06.08.2020 11:00:00 22,2 12,3 24,2 23,6 19,5 20,7 6 4 13 7 NNE 1019,5 75 60 0,0
06.08.2020 10:00:00 20,8 12,5 21,8 20,7 19,2 20,7 5 3 10 5 NNE 1019,5 50 60 0,0
06.08.2020 09:00:00 18,1 12,1 18,5 18,3 19,2 20,7 7 4 10 5 N 1019,7 75 60 0,0
06.08.2020 08:00:00 15,5 11,6 14,8 16,0 19,4 20,7 5 3 7 4 NNE 1019,6 54 60 0,0
06.08.2020 07:00:00 13,4 11,4 11,5 14,9 19,7 20,7 4 2 6 3 ENE 1019,4 33 15 0,0
06.08.2020 06:00:00 12,9 11,5 10,9 15,2 20,1 20,8 4 2 9 5 NNE 1019,0 32 0 0,0
06.08.2020 05:00:00 13,1 10,9 10,8 15,7 20,4 20,8 4 2 6 4 NNE 1018,6 56 0 0,0
06.08.2020 04:00:00 14,9 11,4 12,4 16,2 20,8 20,8 4 2 8 5 E 1018,3 56 0 0,0
06.08.2020 03:00:00 15,8 11,6 12,3 16,8 21,2 20,8 2 1 13 7 WSW 1018,4 61 0 0,0
06.08.2020 02:00:00 18,2 11,0 14,7 17,3 21,6 20,8 4 2 14 7 N 1018,2 75 0 0,0
06.08.2020 01:00:00 18,2 11,6 15,7 17,9 22,1 20,8 6 3 25 13 WNW 1017,8 75 0 0,0
06.08.2020 00:00:00 21,4 10,4 19,4 18,5 22,5 20,8 16 8 26 14 ESE 1017,1 64 0 0,0
05.08.2020 23:00:00 21,2 10,5 18,8 19,4 23,0 20,8 9 5 16 9 E 1017,0 63 0 0,0
05.08.2020 22:00:00 20,6 10,6 17,4 20,5 23,4 20,9 8 4 13 7 E 1016,7 52 0 0,0
05.08.2020 21:00:00 23,1 9,8 19,8 22,5 23,7 20,9 7 4 14 8 E 1016,1 75 36 0,0
05.08.2020 20:00:00 25,6 10,0 24,6 24,3 23,7 20,9 7 4 17 9 E 1015,6 62 60 0,0
05.08.2020 19:00:00 26,8 9,2 27,5 25,7 23,6 20,9 8 4 21 11 - 1015,2 10 60 0,0
05.08.2020 18:00:00 27,3 9,9 29,4 26,5 23,3 20,9 6 3 17 9 E 1015,3 69 60 0,0
05.08.2020 17:00:00 26,9 9,4 28,6 26,4 22,8 20,9 14 8 22 12 ENE 1015,5 75 60 0,0
05.08.2020 16:00:00 26,6 8,7 28,9 27,1 22,2 20,9 11 6 23 13 E 1015,8 10 60 0,0
05.08.2020 15:00:00 26,4 8,2 29,3 27,1 21,6 20,9 10 6 22 12 ESE 1016,2 58 57 0,0
05.08.2020 14:00:00 25,1 10,1 27,8 26,2 20,9 20,9 11 6 22 12 N 1016,8 75 59 0,0
05.08.2020 13:00:00 24,1 10,8 26,1 25,3 20,2 20,9 11 6 22 12 N 1017,4 10 60 0,0
05.08.2020 12:00:00 22,7 11,3 24,7 24,1 19,5 21,0 9 5 19 11 ENE 1017,9 62 60 0,0
05.08.2020 11:00:00 20,4 11,6 21,7 22,0 19,0 21,0 8 4 16 8 N 1018,4 10 60 0,0
05.08.2020 10:00:00 18,0 11,6 19,0 19,6 18,8 21,0 6 4 10 6 NE 1019,1 41 60 0,0
05.08.2020 09:00:00 16,1 11,7 15,7 17,1 18,8 21,0 5 3 9 5 N 1019,2 10 60 0,0
05.08.2020 08:00:00 13,9 11,1 12,6 15,0 19,0 21,0 0 0 6 3 N 1019,3 10 60 0,0
05.08.2020 07:00:00 11,3 9,9 10,1 14,1 19,4 21,0 4 2 11 6 N 1019,2 30 17 0,0
05.08.2020 06:00:00 11,1 10,0 9,1 14,5 19,7 21,0 3 2 5 3 S 1019,0 32 0 0,0
05.08.2020 05:00:00 11,7 10,5 9,7 15,0 20,1 21,0 3 1 4 2 N 1018,9 42 0 0,0
05.08.2020 04:00:00 12,8 10,8 10,6 15,6 20,5 21,0 2 1 9 5 S 1018,8 51 0 0,0
05.08.2020 03:00:00 12,9 11,4 11,0 16,1 20,9 21,1 6 3 12 6 SSE 1018,7 47 0 0,0
05.08.2020 02:00:00 14,2 12,1 12,4 16,7 21,3 21,1 8 5 12 6 SE 1018,7 45 0 0,0
05.08.2020 01:00:00 14,2 12,5 13,0 17,3 21,7 21,1 8 5 10 5 SSE 1018,7 40 0 0,0
05.08.2020 00:00:00 14,9 12,7 13,5 18,0 22,1 21,1 7 4 11 6 SSE 1018,7 44 0 0,0
04.08.2020 23:00:00 15,8 13,1 14,3 18,9 22,5 21,1 6 4 21 11 SSE 1018,8 49 0 0,0
04.08.2020 22:00:00 17,3 12,9 15,7 20,0 22,9 21,1 9 5 16 8 SE 1018,2 50 0 0,0
04.08.2020 21:00:00 18,6 14,4 17,1 21,8 23,1 21,1 6 3 13 7 SSE 1017,7 54 35 0,0
04.08.2020 20:00:00 20,9 13,5 20,8 23,5 23,1 21,1 10 5 17 9 SE 1017,2 61 60 0,0
04.08.2020 19:00:00 22,2 10,1 22,8 24,8 22,9 21,1 5 3 13 7 SE 1016,9 10 60 0,0
04.08.2020 18:00:00 21,6 12,0 23,7 24,6 22,6 21,2 9 5 19 10 SSE 1016,9 65 48 0,0
04.08.2020 17:00:00 23,5 10,7 26,1 24,2 22,4 21,2 7 4 16 9 N 1016,7 69 17 0,0
04.08.2020 16:00:00 21,8 11,2 23,3 24,0 22,1 21,2 8 4 15 8 NNE 1016,7 10 0 0,0
04.08.2020 15:00:00 21,6 11,1 23,3 25,1 21,6 21,2 10 6 18 10 NE 1016,6 75 18 0,0
04.08.2020 14:00:00 22,1 12,4 26,2 24,9 21,0 21,2 10 5 18 10 ENE 1016,4 59 33 0,0
04.08.2020 13:00:00 20,7 13,1 23,7 23,9 20,5 21,2 5 3 18 10 NNW 1016,4 42 42 0,0
04.08.2020 12:00:00 18,3 12,7 18,3 22,2 20,2 21,2 8 4 16 9 NW 1016,5 51 17 0,0
04.08.2020 11:00:00 17,3 12,7 17,8 20,4 19,9 21,2 5 3 14 8 N 1016,2 51 6 0,0
04.08.2020 10:00:00 16,4 12,9 16,5 18,5 19,9 21,2 10 5 13 7 NNW 1015,9 40 0 0,0
04.08.2020 09:00:00 15,7 14,1 15,4 17,8 20,0 21,2 5 3 6 3 SSW 1015,4 24 0 0,0
04.08.2020 08:00:00 15,2 13,8 14,9 17,3 20,1 21,2 4 2 6 4 SSE 1014,7 25 0 0,0
04.08.2020 07:00:00 14,8 13,9 14,7 17,1 20,2 21,2 5 3 8 4 SE 1014,5 14 0 0,0
04.08.2020 06:00:00 14,8 14,1 14,4 17,2 20,4 21,2 4 2 9 5 SSW 1013,8 8 0 0,1
04.08.2020 05:00:00 15,0 14,2 14,6 17,5 20,6 21,2 5 3 7 4 S 1013,6 7 0 0,5
04.08.2020 04:00:00 15,3 14,5 15,0 17,6 20,7 21,3 5 3 6 4 W 1013,6 10 0 0,2
04.08.2020 03:00:00 15,1 14,1 14,8 17,7 20,9 21,3 5 3 9 5 E 1013,3 12 0 0,0
04.08.2020 02:00:00 15,3 14,4 15,0 17,9 21,1 21,3 4 2 5 3 E 1013,2 10 0 0,0
04.08.2020 01:00:00 15,4 14,5 15,0 18,0 21,3 21,3 4 2 12 6 W 1013,4 16 0 0,0
04.08.2020 00:00:00 15,5 14,6 15,2 18,2 21,6 21,3 4 2 9 5 W 1013,3 15 0 0,0
03.08.2020 23:00:00 15,4 14,5 15,0 18,4 21,8 21,3 5 3 7 4 WNW 1012,9 19 0 0,0
03.08.2020 22:00:00 15,4 14,4 15,0 18,7 22,1 21,3 4 2 14 7 ESE 1012,5 18 0 0,0
03.08.2020 21:00:00 15,5 14,4 15,2 18,9 22,4 21,3 7 4 21 12 NW 1012,5 34 0 0,2
03.08.2020 20:00:00 15,8 14,0 15,3 19,5 22,7 21,3 11 6 22 12 NE 1012,5 10 0 0,1
03.08.2020 19:00:00 16,9 15,3 16,2 20,5 23,0 21,3 6 3 11 6 W 1011,6 33 0 0,9
03.08.2020 18:00:00 16,8 14,6 16,2 20,8 23,4 21,3 4 2 23 12 W 1011,8 19 0 0,7
03.08.2020 17:00:00 17,9 14,9 17,4 21,3 23,9 21,3 11 6 18 10 NW 1010,9 48 5 1,1
03.08.2020 16:00:00 13,8 12,8 13,9 20,7 24,0 21,3 11 6 55 30 E 1011,5 4,0 0 30,0
03.08.2020 15:00:00 22,5 12,7 25,3 27,6 23,5 21,3 13 7 28 15 NNE 1010,3 10 18 0,0
03.08.2020 14:00:00 23,3 13,2 27,1 28,0 22,9 21,3 13 7 27 15 NE 1010,5 42 51 0,0
03.08.2020 13:00:00 22,1 13,2 25,4 26,0 22,4 21,3 15 8 23 12 NNE 1011,5 56 22 0,0
03.08.2020 12:00:00 21,4 13,0 24,8 24,8 22,0 21,3 13 7 22 12 NE 1012,0 60 23 0,0
03.08.2020 11:00:00 20,5 13,6 22,4 22,4 21,8 21,3 10 5 15 8 NE 1012,2 43 0 0,0
03.08.2020 10:00:00 19,4 14,8 20,8 21,8 21,7 21,3 9 5 14 8 NNE 1012,3 10 0 0,0
03.08.2020 09:00:00 18,8 14,8 19,6 21,0 21,6 21,3 11 6 15 8 NNW 1012,7 49 56 0,0
03.08.2020 08:00:00 18,6 14,6 17,4 19,5 21,8 21,3 4 2 6 4 - 1012,7 10 36 0,0
03.08.2020 07:00:00 16,5 15,6 15,8 18,3 22,0 21,3 5 3 6 3 SSW 1013,1 22 0 0,0
03.08.2020 06:00:00 15,5 14,8 14,0 18,5 22,2 21,3 0 0 6 3 N 1012,7 7 0 0,0
03.08.2020 05:00:00 17,5 16,2 16,0 19,0 22,5 21,3 4 2 11 6 WSW 1012,4 25 0 0,0
03.08.2020 04:00:00 17,4 16,4 16,5 19,5 22,7 21,3 7 4 10 5 WSW 1012,9 19 0 0,0
03.08.2020 03:00:00 18,3 17,0 17,2 19,8 23,0 21,3 7 4 10 5 S 1013,4 25 0 0,0
03.08.2020 02:00:00 18,2 16,7 16,8 19,9 23,3 21,3 6 4 11 6 SSW 1013,7 23 0 0,0
03.08.2020 01:00:00 18,8 17,3 17,5 20,5 23,5 21,3 8 4 11 6 S 1014,2 24 0 0,0
03.08.2020 00:00:00 19,1 17,6 18,0 21,1 23,8 21,3 6 4 9 5 SW 1014,1 18 0 0,0
02.08.2020 23:00:00 20,0 18,1 19,1 21,7 24,0 21,2 6 4 14 7 S 1014,0 26 0 0,0
02.08.2020 22:00:00 21,0 17,9 20,3 22,3 24,2 21,2 9 5 16 9 SSW 1014,2 30 0 0,0
02.08.2020 21:00:00 21,4 18,4 20,8 22,9 24,3 21,2 7 4 16 9 WSW 1013,6 29 0 0,0
02.08.2020 20:00:00 22,5 17,4 22,1 23,7 24,4 21,2 9 5 16 9 SSW 1013,1 31 0 0,0
02.08.2020 19:00:00 22,8 17,8 23,4 24,4 24,4 21,2 13 7 19 10 SSW 1013,5 29 11 0,0
02.08.2020 18:00:00 22,2 18,8 23,1 23,8 24,4 21,2 11 6 20 11 SSW 1013,9 27 0 0,1
02.08.2020 17:00:00 21,3 18,9 21,6 23,8 24,5 21,2 15 8 20 11 SSW 1014,5 10 0 0,0
02.08.2020 16:00:00 22,0 19,0 22,5 24,3 24,5 21,2 11 6 16 9 SW 1014,5 16 0 0,0
02.08.2020 15:00:00 22,3 19,1 22,8 24,5 24,4 21,2 9 5 12 6 S 1014,6 13 0 0,0
02.08.2020 14:00:00 22,8 18,9 23,4 25,0 24,3 21,2 4 2 9 5 WSW 1014,6 13 2 0,2
02.08.2020 13:00:00 22,0 18,6 20,7 23,8 24,3 21,2 5 3 11 6 NW 1015,2 9 0 0,5
02.08.2020 12:00:00 21,5 18,2 20,4 23,4 24,3 21,1 8 4 14 8 NNW 1015,5 13 0 0,1
02.08.2020 11:00:00 22,6 17,0 23,4 24,0 24,2 21,1 6 3 11 6 N 1015,2 54 0 0,0
02.08.2020 10:00:00 22,0 17,5 22,5 23,3 24,3 21,1 9 5 13 7 W 1015,1 52 0 0,0
02.08.2020 09:00:00 21,1 17,6 21,4 22,4 24,4 21,1 7 4 10 5 SW 1014,7 42 0 0,0
02.08.2020 08:00:00 20,8 17,3 20,4 21,8 24,7 21,1 6 3 11 6 SSW 1014,5 44 0 0,0
02.08.2020 07:00:00 20,1 17,6 19,7 21,7 25,0 21,1 8 4 11 6 SSW 1014,4 47 0 0,0
02.08.2020 06:00:00 19,3 17,2 18,3 21,8 25,3 21,1 6 4 11 6 S 1014,1 41 0 0,0
02.08.2020 05:00:00 20,1 17,4 19,2 22,3 25,7 21,1 9 5 21 11 SSE 1014,2 51 0 0,0
02.08.2020 04:00:00 20,6 17,6 20,1 22,7 26,1 21,1 14 7 30 16 SSW 1014,8 51 0 0,0
02.08.2020 03:00:00 20,8 18,2 20,0 23,3 26,6 21,1 5 3 18 10 SSW 1014,5 49 0 0,0
02.08.2020 02:00:00 20,8 18,2 19,6 23,9 27,1 21,0 12 6 24 13 W 1014,0 48 0 0,0
02.08.2020 01:00:00 21,2 18,1 19,7 24,5 27,6 21,0 12 7 35 19 SSE 1015,0 46 0 0,0
02.08.2020 00:00:00 21,4 18,9 20,3 26,0 28,0 21,0 17 9 32 17 WSW 1015,1 44 0 1,8
01.08.2020 23:00:00 24,6 17,5 21,8 27,9 28,4 21,0 13 7 41 22 WSW 1013,5 22 0 0,1
01.08.2020 22:00:00 26,3 16,1 24,4 28,9 28,7 21,0 3 2 13 7 ENE 1012,7 50 0 0,0
01.08.2020 21:00:00 27,3 15,6 25,9 30,3 29,0 21,0 13 7 16 9 NE 1011,9 59 0 0,0
01.08.2020 20:00:00 29,6 14,7 28,1 32,5 28,9 21,0 11 6 14 8 N 1012,0 60 43 0,0
01.08.2020 19:00:00 32,3 14,9 34,0 33,8 28,7 21,0 9 5 16 9 NE 1011,9 71 60 0,0
01.08.2020 18:00:00 32,6 14,4 35,3 34,4 28,3 21,0 14 7 21 11 NNE 1012,5 57 60 0,0
01.08.2020 17:00:00 32,7 13,9 36,5 34,9 27,7 21,0 15 8 26 14 NNE 1013,0 69 60 0,0
01.08.2020 16:00:00 33,4 15,5 38,7 34,3 27,2 21,0 12 7 23 12 ENE 1013,3 43 41 0,0
01.08.2020 15:00:00 31,6 15,3 34,1 33,6 26,5 21,0 9 5 26 14 NE 1013,6 60 25 0,0
01.08.2020 14:00:00 32,1 15,5 36,7 33,0 25,9 20,9 12 7 24 13 E 1014,1 54 32 0,0
01.08.2020 13:00:00 31,3 14,2 35,7 32,7 25,2 20,9 15 8 30 16 NE 1014,8 10 60 0,0
01.08.2020 12:00:00 30,4 14,5 34,7 30,9 24,6 20,9 10 6 21 11 ENE 1014,9 47 51 0,0
01.08.2020 11:00:00 29,4 13,9 32,2 28,1 24,3 20,9 5 3 8 5 - 1014,8 10 32 0,0
01.08.2020 10:00:00 26,1 16,4 27,7 24,8 24,3 20,9 4 2 7 4 - 1014,7 10 0 0,0
01.08.2020 09:00:00 24,6 15,1 24,6 23,4 24,4 20,9 8 4 21 12 SSW 1014,6 44 0 0,0
01.08.2020 08:00:00 23,0 15,3 23,2 22,8 24,6 20,9 5 3 12 7 WSW 1014,5 54 10 0,0
01.08.2020 07:00:00 21,9 14,1 21,5 22,1 24,9 20,9 10 5 16 9 WSW 1014,7 47 18 0,0
01.08.2020 06:00:00 18,6 14,0 17,1 22,0 25,2 20,9 3 2 6 4 N 1014,0 50 0 0,0
01.08.2020 05:00:00 19,5 13,9 16,3 22,5 25,6 20,9 2 1 10 5 SW 1014,2 55 0 0,0
01.08.2020 04:00:00 22,3 13,4 20,1 23,0 26,0 20,9 7 4 30 16 S 1014,1 57 0 0,0
01.08.2020 03:00:00 19,9 14,5 16,7 23,4 26,5 20,9 4 2 7 4 S 1014,1 46 0 0,0

tt = temperature
td = dewpoint
tt 5cm = temperature 5cm
tt -5cm = temperature -5cm
tt -20cm = temperature -20cm
tt -100cm = temperature -100cm
ff = wind speed
fx = gusts
dd = wind direction
ppp = reduced air pressure
vv = visibility
sd = sunshine duration
rr = precipitation

Next stations